Other Public Products
Issued by NWS Grand Forks, ND

Home | Current Version | Previous Version | Text Only | Print | Product List | Glossary Off
Versions: 1 2 3 4 5 6 7 8 9 10 11 12 13 14 15 16 17 18 19 20 21 22 23 24 25 26 27 28 29 30 31 32 33 34 35 36 37 38 39 40 41 42 43 44 45 46 47 48 49 50

000
FPUS83 KFGF 180810
OPUFGF
PRAIRIE TO PINES WEATHER ROUNDUP
NATIONAL WEATHER SERVICE EASTERN NORTH DAKOTA/GRAND FORKS ND
300 AM CDT FRI APR 18 2014

 **SATELLITE DATA USED TO AUGMENT SKY COVER AT AUTOMATED STATIONS**
 *****  WEATHER ACROSS EASTERN NORTH DAKOTA  *****

CITY           SKY/WX    TMP DP  RH WIND       PRES   REMARKS
GRAND FORKS    CLOUDY    31  21  66 E5        30.28F
GRAND FORKS AF CLOUDY    31  20  62 E5        30.28F
GRAND CITY NWS   N/A     32 N/A N/A E6          N/A
BUXTON         NOT AVBL
DEVILS LAKE    CLOUDY    32  16  51 SE12      30.22F WCI  23
FARGO          CLOUDY    33  22  63 E7        30.28S
WAHPETON ARPT  CLOUDY    34  23  64 SE5       30.28S
$$

 *****  WEATHER ACROSS CENTRAL AND WESTERN NORTH DAKOTA  *****

CITY           SKY/WX    TMP DP  RH WIND       PRES   REMARKS
JAMESTOWN      CLOUDY    33  21  61 E12       30.20F WCI  24
BISMARCK       MOCLDY    34  22  61 E12       30.11F
MINOT          CLEAR     31  22  69 E12       30.10F WCI  22
MINOT AFB      CLEAR     31  23  71 SE15      30.10F WCI  21
GARRISON         N/A     35  24  64 SE13      30.08F
WILLISTON      CLOUDY    38  30  73 SE8       29.96F
DICKINSON      CLOUDY    34  22  61 SE17      29.94F WCI  23
HETTINGER      CLOUDY    33  23  66 SE15      29.95F WCI  23
$$

 *****  OTHER OBSERVATIONS NORTHEAST NORTH DAKOTA  *****

CITY           SKY/WX    TMP DP  RH WIND       PRES   REMARKS
WALHALLA       FAIR      27  19  74 E3        30.30S
LANGDON        CLOUDY    30  16  55 SE14      30.24S WCI  20
CAVALIER       FAIR      28  19  69 E5        30.30F WCI  23
GRAFTON        CLOUDY    30  21  69 E8        30.30S WCI  23
CANDO          CLOUDY    32  18  55 SE14      30.23S WCI  22
FORT TOTTEN      N/A     33  15  46 SE10      29.95  WCI  25
ROLLA          CLOUDY    30  16  55 SE14G20   30.21S WCI  20
RUGBY          FAIR      32  18  55 SE18      30.17F WCI  20
 ***** THE ABOVE OBSERVATIONS ARE NON NWS ARE NOT QUALITY
        CONTROLLED AND MAY MIS-REPORT RAIN FOR SNOW...
$$

 *****  OTHER OBSERVATIONS SOUTHEAST NORTH DAKOTA *****

CITY           SKY/WX    TMP DP  RH WIND       PRES   REMARKS
COOPERSTOWN    PTSUNNY   32  23  69 E12       30.24S WCI  23
VALLEY CITY    CLOUDY    32  19  59 E9        30.24F WCI  24
OAKES          CLOUDY    32  23  69 E8        30.22S WCI  25
GWINNER        PTSUNNY   36  27  69 E7        30.25S
SHEYENNE NWR     N/A     34  24  66 E3        29.95S
BUFFALO        NOT AVBL
WYNDMERE       NOT AVBL
 ***** THE ABOVE OBSERVATIONS ARE NON NWS ARE NOT QUALITY
       CONTROLLED AND MAY MIS-REPORT RAIN FOR SNOW...
$$

  *****  WEATHER ACROSS NORTHERN MINNESOTA  *****

CITY           SKY/WX    TMP DP  RH WIND       PRES   REMARKS
FLAG ISLAND    CLEAR     19  16  86 CALM      30.31S
WARROAD        CLEAR     21  16  79 CALM      30.32S
ROSEAU         CLEAR     25  18  74 NE3       30.31S
HALLOCK        CLOUDY    28  18  64 E9        30.30S WCI  20
THF RVR FALLS  CLEAR     28  14  54 E6        30.30S WCI  22
HALSTAD          N/A     29  21  73 E2          N/A
FOSSTON        PTCLDY    23  10  58 CALM      30.29S
BAUDETTE       CLEAR     20  12  71 NW6       30.31F WCI  12
WASKISH        CLEAR     18  18 100 CALM      30.31S
CROOKSTON      MOCLDY    32  19  59 E5        30.30F
$$
  *****  WEATHER ACROSS CENTRAL AND WEST MINNESOTA  *****

CITY           SKY/WX    TMP DP  RH WIND       PRES   REMARKS
BEMIDJI        PTCLDY    25  16  68 CALM      30.28S
PARK RAPIDS    PTCLDY    29  17  61 E3        30.27S
WADENA         MOCLDY    27  19  74 CALM      30.27S
DETROIT LAKES  PTCLDY    30  19  64 CALM      30.27F
MOORHEAD       CLOUDY    34  27  75 E2        30.29S
FERGUS FALLS   CLOUDY    34  23  64 SE5       30.27R
ELBOW LAKE     CLOUDY    32  26  76 E3        30.28S
MORRIS MN      MOCLDY    30  27  86 SE3       30.28R
STAPLES        MOCLDY    27  18  69 CALM      30.27S
WHEATON        MIX PCPN  36  27  69 SE5       30.30S
$$
  *****  WEATHER ELSEWHERE ACROSS MINNESOTA  *****

CITY           SKY/WX    TMP DP  RH WIND       PRES   REMARKS
DULUTH         MOCLDY    26  19  74 CALM      30.30S
INTRNTL FALLS  CLEAR     18  15  88 CALM      30.32R
ELY            CLEAR     16  14  93 CALM      30.30S
CLOQUET        MOCLDY    21  19  93 CALM      30.30S
BRAINERD       CLOUDY    34  22  61 CALM      30.29S
HIBBING        PTCLDY    20  16  84 CALM      30.31R
ALEXANDRIA     MOCLDY    28  24  85 CALM      30.28F
SAINT CLOUD    CLEAR     22  19  89 CALM      30.30F
MINNEAPOLIS    CLEAR     29  25  85 CALM      30.33S
$$

  *****  WEATHER ACROSS SOUTH DAKOTA  *****

CITY           SKY/WX    TMP DP  RH WIND       PRES   REMARKS
SIOUX FALLS    CLOUDY    33  27  78 E9        30.24F
BROOKINGS      NOT AVBL
WATERTOWN      CLOUDY    33  17  51 E7        30.22S
HURON          MOCLDY    33  24  69 SE13      30.19S WCI  24
SISSETON         N/A     32  24  72 S8        30.25F WCI  25
ABERDEEN       CLOUDY    33  21  61 SE8       30.20F
MITCHELL         N/A     36  27  69 MISG      30.20F
PIERRE         CLOUDY    38  26  62 SE16      30.04F
MOBRIDGE       CLOUDY    36  24  62 SE15      30.05F
RAPID CITY     PTCLDY    36  32  85 SE8       29.89F
$$

  *****  SOME WEATHER IN NEARBY STATES *****

CITY           SKY/WX    TMP DP  RH WIND       PRES   REMARKS
GLASGOW MT     LGT RAIN  41  35  79 E18       29.77F
GREAT FALLS MT CLOUDY    45  42  89 E6        29.64F
CHEYENNE WY    PTCLDY    39  31  72 W3        30.00F
SCOTTSBLUFF NE CLEAR     52  35  52 SW7G21    29.94S
OMAHA NE       PTCLDY    33  27  78 CALM      30.26S
DES MOINES IA  PTCLDY    38  30  73 E6        30.30S
DAVENPORT IA   CLEAR     33  30  88 N8        30.30F
CHICAGO IL     CLOUDY    44  36  73 CALM      30.24F
EAU CLAIRE WI  CLEAR     24  22  91 CALM      30.32F
LA CROSSE WI   CLEAR     34  26  72 NE3       30.32S
$$

  *****  SOME NATIONAL WEATHER *****

CITY           SKY/WX    TMP DP  RH WIND       PRES   REMARKS
LA GUARDIA NY  CLOUDY    37  27  67 E7        30.57F
RALEIGH NC     MOCLDY    40  35  83 NE6       30.43F
ATLANTA GA     CLOUDY    56  36  47 NE13      30.28F
NEW ORLEANS LA CLOUDY    63  59  87 E10       30.05F
OKLAHOMA CITY  PTCLDY    47  39  74 NE5       30.24F
ALBUQUERQUE NM PTCLDY    53  26  35 NW6       30.16S
SALT LAKE CITY CLOUDY    64  28  25 S16G23    29.81S
LOS ANGELES CA CLOUDY    61  53  75 E6        29.90F
BOISE ID       CLOUDY    50  41  71 NW14G21   29.88R
SEATTLE WA     CLOUDY    46  39  76 SW9       29.94R
$$

*** WEATHER ACROSS MANITOBA...SASKATCHEWAN AND ONTARIO ***
                ***ONTARIO***

CITY           SKY/WX    TMP DP  RH WIND       PRES   REMARKS
GERALDTON      LGT SNOW  27  27 100 N5        30.24S WCI  21
THUNDER BAY    NOT AVBL
SIOUX LOOKOUT  CLEAR     10   9  92 CALM      30.31S
TORONTO        MOCLDY    43  30  61 SE2       30.28F
BIG TROUT LK   CLEAR      9   1  72 W3        30.30S
PICKLE LAKE    NOT AVBL
DRYDEN         CLEAR     23  19  86 S6        30.31R WCI  16
KENORA         CLEAR     27   1  33 E6        30.31S WCI  20
$$
                *** MANITOBA***

CITY           SKY/WX    TMP DP  RH WIND       PRES   REMARKS
BRANDON        CLOUDY    28  19  69 E9        30.25S WCI  20
DAUPHIN        CLEAR     25  14  63 SE7       30.25S WCI  17
ISLAND LAKE    CLEAR     14  10  85 CALM      30.35R
PILOT MOUND      N/A     28  16  59 SE13        N/A  WCI  18
THE PAS        CLEAR     18   7  62 SE9       30.27S WCI   6
THOMPSON       CLEAR      7   1  78 CALM      30.32R
WINNIPEG       CLEAR     21  10  63 E6        30.33S WCI  14
LYNN LAKE      CLEAR     12   0  57 CALM      30.25S
CHURCHILL      PTCLDY     5   1  85 W6        30.38R WCI  -6
GILLAM         PTCLDY    14   5  67 SW6       30.32R WCI   5
$$
                ***SASKATCHEWAN***

CITY           SKY/WX    TMP DP  RH WIND       PRES   REMARKS
ESTEVAN        NOT AVBL
KINDERSLEY     LGT RAIN  37  36  93 SE22G32   29.71F
LLOYDMINSTER   LGT SNOW  30  30 100 E15G22    29.77F WCI  19
PRINCE ALBERT  CLOUDY    28  18  64 E12       30.04F WCI  18
REGINA         MOCLDY    32  21  64 SE22G28   29.96F WCI  19



USA.gov is the U.S. government's official web portal to all federal, state and local government web resources and services.